#timestamp,LO_Frequency,Hit,StdDev 
1570377615.8,286047007.8,N
1570377635.7,286047012.0,Y
1570377655.5,286047002.0,P
1570377675.3,286047000.0,N
1570377695.2,286046996.8,N
1570377715.0,286047002.5,N
1570377715.9,286047002.5,N
1570377735.7,286046999.8,N
1570377755.6,286047003.6,N
1570377775.4,286047006.5,N
1570377795.3,286047011.9,Y
1570377815.1,286047010.8,P
1570377816.0,286047010.8,N
1570377835.8,286047008.9,N
1570377855.7,286047010.2,N
1570377875.5,286047007.3,N
1570377895.3,286047008.6,N
1570377915.2,286047007.9,N
1570377935.0,286047009.3,Y
1570377935.9,286047009.3,P
1570377955.8,286047000.0,N
1570377975.6,286046996.8,N
1570377995.4,286046996.6,N
1570378015.3,286046999.7,N
1570378035.1,286047005.3,N
1570378055.8,286047008.8,N
1570378075.7,286047010.2,N
1570378095.5,286047010.3,N
1570378115.4,286047006.8,N
1570378135.2,286047005.0,N
1570378155.0,286047003.7,N
1570378155.9,286047003.7,N
1570378175.8,286047001.8,N
1570378195.6,286047002.1,N
1570378215.4,286047001.3,N
1570378235.3,286047002.9,N
1570378255.1,286047004.8,N
1570378275.9,286047011.1,N
1570378295.7,286047011.7,N
1570378315.5,286047011.2,N
1570378335.4,286047009.4,N
1570378355.2,286047014.7,Y
1570378375.0,286047010.5,P
1570378376.0,286047010.5,P
1570378395.8,286047010.4,P
1570378415.6,286047010.8,Y
1570378435.5,286047001.6,P
1570378455.3,286047005.4,N
1570378475.1,286047002.2,N
1570378495.9,286047000.5,N
1570378515.7,286046999.5,N
1570378535.6,286047002.5,N
1570378555.4,286047005.0,N
1570378575.2,286047007.5,N
1570378595.1,286047005.9,N
1570378596.0,286047005.9,N
1570378615.8,286046999.8,N
1570378635.7,286047001.6,N
1570378655.5,286047000.4,N
1570378675.3,286046998.9,N
1570378695.2,286047000.6,N
1570378715.0,286047001.1,N
1570378715.9,286047001.1,N
1570378735.7,286046994.0,N
1570378755.6,286046991.7,N
1570378775.4,286046999.6,N
1570378795.3,286046998.8,N
1570378815.1,286047002.7,N
1570378816.0,286047002.7,N
1570378835.8,286047000.1,N
1570378855.7,286047001.1,N
1570378875.5,286047000.4,N
1570378895.3,286046999.3,N
1570378915.2,286046999.3,N
1570378935.0,286046996.5,N
1570378935.9,286046996.5,N
1570378955.8,286047001.1,N
1570378975.6,286047002.5,N
1570378995.4,286047001.9,N
1570379015.3,286047002.9,N
1570379035.1,286047001.8,N
1570379055.9,286047000.1,N
1570379075.7,286047002.2,N
1570379095.5,286047007.6,N
1570379115.4,286047005.3,N
1570379135.2,286047005.8,N
1570379155.0,286047001.8,N
1570379155.9,286047001.8,N
1570379175.8,286047000.1,N
1570379195.6,286047011.9,Y
1570379215.5,286047006.2,P
1570379235.3,286047006.1,N
1570379255.1,286047004.8,N
1570379275.9,286047009.2,Y
1570379295.7,286047005.9,P
1570379315.5,286047005.7,P
1570379335.4,286047005.2,P
1570379355.2,286047009.1,Y
1570379375.1,286046998.3,P
1570379395.2,286046994.3,N
1570379415.1,286046993.6,N
1570379416.0,286046993.6,N
1570379435.8,286046995.1,N
1570379455.6,286046997.3,N
1570379475.5,286046998.2,N
1570379495.3,286046995.1,N
1570379515.2,286046994.1,N
1570379535.9,286046994.8,N
1570379555.7,286046991.9,N
1570379575.6,286046994.4,N
1570379595.4,286046994.5,N
1570379615.2,286046997.6,N
1570379635.1,286046995.5,N
1570379636.0,286046995.5,N
1570379655.8,286046996.3,N
1570379675.7,286046994.3,N
1570379695.5,286046993.2,N
1570379715.3,286046986.2,Y
1570379735.2,286046982.7,P
1570379755.0,286046981.9,N
1570379755.9,286046981.9,N
1570379775.8,286046981.4,Y
1570379795.6,286046995.7,P
1570379815.4,286046993.4,N
1570379835.3,286046998.0,N
1570379855.1,286047001.2,N
1570379875.8,286046998.0,N
1570379895.7,286046992.0,N
1570379915.5,286046994.0,N
1570379935.4,286046992.8,N
1570379955.2,286046992.7,N
1570379975.0,286046992.0,N
1570379975.9,286046992.0,N
1570379995.8,286046990.6,N
1570380015.6,286046990.6,N
1570380035.4,286046987.7,Y
1570380055.3,286046994.4,P
1570380075.1,286046990.7,P
1570380095.9,286046992.4,P
1570380115.7,286046994.7,Y
1570380135.5,286047001.7,P
1570380155.4,286047007.2,N
1570380175.2,286047012.4,N
1570380195.0,286047009.3,N
1570380196.0,286047009.3,N
1570380215.8,286047009.2,N
1570380235.6,286047002.0,N
1570380255.5,286047000.3,N
1570380275.3,286046998.6,N
1570380295.1,286046999.4,N
1570380315.9,286046999.6,N
1570380335.7,286046997.7,N
1570380355.6,286046994.2,N
1570380375.4,286046988.6,N
1570380395.2,286046989.8,N
1570380415.1,286046988.4,N
1570380416.0,286046988.4,N
1570380435.8,286046986.2,N
1570380455.7,286046989.8,N
1570380475.5,286046987.5,N
1570380495.3,286046987.3,N
1570380515.2,286046993.7,N
1570380535.9,286046996.2,N
1570380555.7,286046994.6,N
1570380575.6,286046991.7,N
1570380595.4,286046993.1,N
1570380615.2,286046990.5,N
1570380635.1,286046987.0,N
1570380636.0,286046987.0,N
1570380655.8,286046981.3,N
1570380675.7,286046975.7,Y
1570380695.5,286046976.3,P
1570380715.3,286046975.5,N
1570380735.2,286046968.5,P
1570380755.0,286046959.8,Y
1570380755.9,286046959.8,P
1570380775.8,286046979.9,N
1570380795.6,286046972.5,N
1570380815.4,286046964.4,Y
1570380835.3,286046988.6,P
1570380855.1,286046988.9,N
1570380875.8,286046994.4,N
1570380895.7,286046997.3,N
1570380915.5,286046997.1,N
1570380935.4,286047000.9,N
1570380955.2,286047004.2,N
1570380975.0,286046998.7,N
1570380975.9,286046998.7,N
1570380995.8,286047000.7,N
1570381015.6,286047001.7,N
1570381035.4,286047002.0,N
1570381055.3,286047003.0,N
1570381075.1,286047003.7,N
1570381095.9,286047000.9,N
1570381115.7,286046998.0,N
1570381135.5,286046998.0,N
1570381155.4,286046996.5,N
1570381175.2,286047005.5,N
1570381195.0,286047006.3,N
1570381195.9,286047006.3,N
